Weather History for Wilmington, OH

Change the Weather History Date:

Sunday, May 19, 2013

  Actual Average (KDAY) Record (KDAY)
Temperature  
Mean Temperature 72 °F 62 °F  
Max Temperature 82 °F 72 °F 92 °F (1962)
Min Temperature 62 °F 52 °F 33 °F (2002)
Degree Days  
Heating Degree Days 0 5  
Month to date heating degree days 126  
Since 1 July heating degree days 5577  
Cooling Degree Days 7 2  
Month to date cooling degree days 26  
Year to date cooling degree days 36  
Growing Degree Days 22 (Base 50)    
Moisture  
Dew Point 65 °F    
Average Humidity 84    
Maximum Humidity 100    
Minimum Humidity 56    
Precipitation  
Precipitation 0.00 in 0.15 in 1.50 in (1957)
Month to date precipitation 2.84  
Year to date precipitation 15.22  
Snow  
Snow 0.00 in 0.00 in 0.00 in ()
Month to date snowfall 0.0  
Since 1 July snowfall 23.3  
Snow Depth -    
Sea Level Pressure  
Sea Level Pressure 29.98 in    
Wind  
Wind Speed 3 mph (SSE)    
Max Wind Speed 10 mph    
Max Gust Speed -    
Visibility 8 miles    
Events      
T = Trace of Precipitation, MM = Missing Value Source: NWS Daily Summary

Daily Weather History Graph

Daily Weather History Graph

Search for Another Location

Airport:

Trip Planner

Search our weather history database for the weather conditions in past years. The results will help you decide how hot, cold, wet, or windy it might be!

Date:

Astronomy

May. 19, 2013 Rise Set
Actual Time 6:17 AM EDT 8:46 PM EDT
Civil Twilight 5:47 AM EDT 9:16 PM EDT
Nautical Twilight 5:09 AM EDT 9:55 PM EDT
Astronomical Twilight 4:26 AM EDT 10:37 PM EDT
Moon 2:51 PM EDT (5/19) 2:39 AM EDT (5/19)
Length of Visible Light 15h 29m
Length of Day
14h 28m
Waxing Gibbous, 65% of the Moon is Illuminated
May 19
Waxing Gibbous
May 25
Full
May 31
Last Quarter
Jun 8
New
Jun 16
First Quarter

Hourly Weather History & Observations

Time (EDT) Temp. Heat Index Dew Point Humidity Pressure Visibility Wind Dir Wind Speed Gust Speed Precip Events Conditions
12:54 AM 64.9 °F - 63.0 °F 93% 29.99 in 8.0 mi Calm Calm - N/A   Mostly Cloudy
1:54 AM 64.0 °F - 63.0 °F 96% 29.97 in 5.0 mi Calm Calm - N/A   Clear
2:54 AM 64.0 °F - 63.0 °F 96% 29.96 in 6.0 mi Calm Calm - N/A   Clear
3:54 AM 63.0 °F - 62.1 °F 97% 29.96 in 4.0 mi Calm Calm - N/A   Clear
4:42 AM 62.6 °F - 62.6 °F 100% 29.99 in 4.0 mi East 3.5 mph - N/A   Partly Cloudy
4:54 AM 62.1 °F - 62.1 °F 100% 29.98 in 4.0 mi East 3.5 mph - N/A   Scattered Clouds
5:54 AM 62.1 °F - 62.1 °F 100% 29.99 in 4.0 mi SSE 3.5 mph - N/A   Overcast
6:54 AM 63.0 °F - 63.0 °F 100% 30.00 in 3.0 mi Calm Calm - N/A   Overcast
7:20 AM 64.4 °F - 62.6 °F 94% 30.02 in 4.0 mi ESE 4.6 mph - N/A   Overcast
7:25 AM 64.4 °F - 64.4 °F 100% 30.02 in 4.0 mi SE 3.5 mph - N/A   Overcast
8:24 AM 66.2 °F - 64.4 °F 94% 30.01 in 5.0 mi ESE 4.6 mph - N/A   Overcast
8:54 AM 68.0 °F - 66.0 °F 93% 30.00 in 5.0 mi SE 4.6 mph - N/A   Overcast
9:47 AM 71.6 °F - 68.0 °F 88% 30.01 in 6.0 mi South 8.1 mph - N/A   Overcast
9:54 AM 73.0 °F - 68.0 °F 84% 30.00 in 7.0 mi South 6.9 mph - N/A   Overcast
10:42 AM 73.4 °F - 66.2 °F 78% 30.02 in 9.0 mi South 5.8 mph - N/A   Mostly Cloudy
10:54 AM 73.0 °F - 66.0 °F 79% 30.00 in 10.0 mi SSW 6.9 mph - N/A   Overcast
11:09 AM 73.4 °F - 66.2 °F 78% 30.03 in 10.0 mi SW 6.9 mph - N/A   Overcast
11:13 AM 73.4 °F - 66.2 °F 78% 30.03 in 10.0 mi South 5.8 mph - N/A   Overcast
11:54 AM 75.9 °F - 66.0 °F 71% 30.00 in 10.0 mi South 4.6 mph - N/A   Mostly Cloudy
12:10 PM 77.0 °F - 66.2 °F 69% 30.02 in 10.0 mi South 4.6 mph - N/A   Mostly Cloudy
12:18 PM 75.2 °F - 66.2 °F 73% 30.02 in 10.0 mi SSW 3.5 mph - N/A   Scattered Clouds
12:54 PM 71.1 °F - 66.0 °F 84% 30.00 in 8.0 mi WSW 10.4 mph - N/A   Overcast
1:54 PM 72.0 °F - 68.0 °F 87% 29.98 in 7.0 mi SSW 3.5 mph - 0.00 in   Overcast
4:54 PM 82.0 °F 83.8 °F 64.9 °F 56% 29.91 in 10.0 mi WSW 3.5 mph - N/A   Partly Cloudy
5:54 PM 80.1 °F 81.9 °F 64.9 °F 60% 29.92 in 10.0 mi South 5.8 mph - N/A   Scattered Clouds
6:54 PM 79.0 °F - 64.9 °F 62% 29.92 in 10.0 mi South 5.8 mph - N/A   Mostly Cloudy
7:54 PM 78.1 °F - 63.0 °F 60% 29.91 in 10.0 mi SSE 4.6 mph - N/A   Clear
8:54 PM 73.9 °F - 64.9 °F 73% 29.92 in 10.0 mi SSE 4.6 mph - N/A   Clear
9:54 PM 72.0 °F - 66.0 °F 81% 29.93 in 10.0 mi SE 3.5 mph - N/A   Clear
10:54 PM 71.1 °F - 64.9 °F 81% 29.94 in 10.0 mi SE 4.6 mph - N/A   Clear
11:54 PM 70.0 °F - 64.9 °F 84% 29.93 in 10.0 mi SSE 5.8 mph - N/A   Clear